N2QDK-2 Weather Reports


Display with metric or nautical units.
time (UTC)temp
F
wind
direction
speed
MPH
gust
MPH
rain 1hr
in
rain 24hr
in
rain mn
in
humidity
%
barometer
mb
20260505060516 64 225 2.0 4.0 0.00 0.00 0.00 67 1002.7
20260505055516 64 225 2.0 4.0 0.00 0.00 0.00 66 1002.5
20260505054517 65 225 2.0 3.0 0.00 0.00 0.00 66 1002.8
20260505053516 65 225 3.0 5.0 0.00 0.00 0.00 65 1002.8
20260505052516 65 225 2.0 5.0 0.00 0.00 0.00 65 1002.8
20260505051516 65 248 3.0 5.0 0.00 0.00 0.00 64 1002.7
20260505050516 65 225 2.0 5.0 0.00 0.00 0.00 62 1002.7
20260505041516 65 203 1.0 3.0 0.00 0.00 0.00 59 1002.8
20260505040516 65 225 2.0 4.0 0.00 0.00 0.00 58 1003.0
20260505035516 65 225 2.0 4.0 0.00 0.00 0.00 58 1003.1
20260505034516 65 225 2.0 4.0 0.00 0.00 0.00 55 1003.1
20260505033516 65 225 2.0 4.0 0.00 0.00 0.00 52 1003.2
20260505032516 64 225 3.0 8.0 0.00 0.00 0.00 51 1003.3
20260505031516 63 0.0 0.0 0.00 0.00 0.00 52 1002.8
20260505030516 63 0.0 0.0 0.00 0.00 0.00 53 1002.8
20260505025516 62 0.0 0.0 0.00 0.00 0.00 54 1002.9
20260505024518 62 0.0 0.0 0.00 0.00 0.00 55 1002.9
20260505023516 62 0.0 0.0 0.00 0.00 0.00 55 1002.8
20260505022517 62 0.0 0.0 0.00 0.00 0.00 56 1002.9
20260505021516 61 0.0 0.0 0.00 0.00 0.00 56 1003.0
20260505020516 60 0.0 0.0 0.00 0.00 0.00 58 1003.1
20260505015516 60 0.0 0.0 0.00 0.00 0.00 60 1003.3
20260505014516 61 0.0 0.0 0.00 0.00 0.00 59 1003.3
20260505013516 61 0.0 0.0 0.00 0.00 0.00 55 1003.2
20260505012516 62 0.0 0.0 0.00 0.00 0.00 55 1003.2
20260505011517 63 0.0 0.0 0.00 0.00 0.00 52 1003.1
20260505010516 64 0.0 0.0 0.00 0.00 0.00 51 1002.9
20260505005516 65 0.0 0.0 0.00 0.00 0.00 50 1002.9
20260505004516 66 0.0 0.0 0.00 0.00 0.00 47 1002.9
20260505003516 67 0.0 0.0 0.00 0.00 0.00 47 1002.9
20260505002516 68 0.0 0.0 0.00 0.00 0.00 44 1002.9
20260505001516 69 0.0 0.0 0.00 0.01 0.00 43 1003.0
20260505000516 69 0.0 0.0 0.00 0.01 0.00 42 1002.9
20260504235516 70 0.0 0.0 0.00 0.01 0.00 41 1002.8
20260504234516 71 0.0 1.0 0.00 0.01 0.00 40 1002.8
20260504233516 72 0.0 0.0 0.00 0.01 0.00 39 1002.6
20260504232516 73 0.0 0.0 0.00 0.01 0.00 37 1002.7
20260504231516 73 225 1.0 2.0 0.00 0.01 0.00 36 1002.7
20260504230516 73 248 1.0 2.0 0.00 0.01 0.00 36 1002.7
20260504225516 73 225 1.0 3.0 0.00 0.01 0.00 35 1002.7
20260504224516 74 248 2.0 5.0 0.00 0.01 0.00 35 1002.6
20260504223516 74 225 1.0 2.0 0.00 0.01 0.00 35 1002.6
20260504222515 74 225 2.0 4.0 0.00 0.01 0.00 35 1002.6
20260504221516 75 225 2.0 3.0 0.00 0.01 0.00 36 1002.6
20260504220516 75 225 2.0 3.0 0.00 0.01 0.00 35 1002.7
20260504215516 75 225 2.0 6.0 0.00 0.01 0.00 34 1002.8
20260504214516 76 248 2.0 4.0 0.00 0.01 0.00 35 1002.9
20260504213515 76 248 2.0 4.0 0.00 0.01 0.00 35 1003.0
20260504212516 75 248 2.0 5.0 0.00 0.01 0.00 36 1002.9
20260504211516 75 225 2.0 7.0 0.00 0.01 0.00 35 1002.9
20260504210516 75 248 3.0 5.0 0.00 0.01 0.00 37 1003.2
20260504205515 75 225 2.0 6.0 0.00 0.01 0.00 36 1003.3
20260504204516 75 248 2.0 7.0 0.00 0.01 0.00 36 1003.3
20260504203516 75 248 2.0 5.0 0.00 0.01 0.00 38 1003.2
20260504202517 75 248 3.0 6.0 0.00 0.01 0.00 36 1003.4
20260504201517 75 225 2.0 5.0 0.00 0.01 0.00 37 1003.4
20260504200516 74 248 3.0 6.0 0.00 0.01 0.00 38 1003.6
20260504195516 74 270 3.0 7.0 0.00 0.01 0.00 39 1003.7
20260504194517 74 225 3.0 7.0 0.00 0.01 0.00 37 1003.9
20260504193517 74 225 2.0 6.0 0.00 0.01 0.00 36 1004.1
20260504192516 74 248 4.0 8.0 0.00 0.01 0.00 37 1004.3
20260504191516 74 270 3.0 10.0 0.00 0.01 0.00 38 1004.3
20260504190516 73 225 3.0 7.0 0.00 0.01 0.00 39 1004.5
20260504185517 73 225 2.0 6.0 0.00 0.01 0.00 40 1004.6
20260504184516 73 225 2.0 6.0 0.00 0.01 0.00 41 1004.8
20260504183516 73 248 3.0 6.0 0.00 0.01 0.00 43 1004.8
20260504182516 73 248 3.0 7.0 0.00 0.01 0.00 42 1005.0
20260504181516 73 225 3.0 6.0 0.00 0.01 0.00 41 1005.0
20260504180516 73 225 2.0 4.0 0.00 0.01 0.00 44 1005.0
20260504175517 71 248 3.0 6.0 0.00 0.01 0.00 43 1005.2
20260504174516 71 225 3.0 7.0 0.00 0.01 0.00 45 1005.2
20260504173516 71 248 2.0 5.0 0.00 0.01 0.00 46 1005.2
20260504172516 71 248 3.0 9.0 0.00 0.01 0.00 48 1005.5
20260504171516 70 248 2.0 4.0 0.00 0.01 0.00 47 1005.4
20260504170516 69 248 3.0 9.0 0.00 0.01 0.00 47 1005.4
20260504150516 64 248 3.0 7.0 0.00 0.01 0.00 51 1006.3
20260504140516 61 248 2.0 4.0 0.00 0.01 0.00 54 1006.3
20260504130515 57 248 2.0 6.0 0.00 0.01 0.00 56 1006.9
20260504110517 52 225 2.0 3.0 0.00 0.01 0.00 59 1007.0
20260504100517 51 225 1.0 2.0 0.00 0.01 0.00 59 1006.8
20260504081517 51 225 2.0 3.0 0.00 0.01 0.00 61 1007.5
20260504080517 51 225 2.0 4.0 0.00 0.01 0.00 61 1007.6